Вернуться в каталог

NSS 9

АктивенСвязьGEO
NORAD 33749·PAYLOAD·🇱🇺 Luxembourg

Запущен Feb 12, 2009 с Guiana Space Centre

Loading…

TLE

СвежийSource: CelesTrak SupGP

Эпоха: Sep 13, 2026, 23:30 UTC

1 33749C 09008A   26256.97916667  .00000161  00000+0  00000+0 0  2567
2 33749   1.4849  81.6177 0002119  76.3042  10.6133  1.00270644    18

Отслеживайте NSS 9 в реальном времени с AllMySat

Download on the App Store